Current weather by "City, St" or "zip code"  
 

Current Conditions: CAIRO

Clear


74.7 F

Last Updated on Jun 17 2024, 10:55 PM CDT
Humidity: 92%
Wind Speed: 0.0 mph
Barometer 30.02 in
Dewpoint: 72.3 F
Visibility: 10.00 mi
Precip: --
Heat Index: 76.1 F
Wind Chill: NA
Current conditions at:

CAIRO (KCIR)

Lat: 37.06 Lon: 89.22

active severe weather and emergency alerts image image weather storm and storm spotter reports image weather observation monitoring service image
Active
Alerts
Storm Reports Obs
Monitoring

Sign-up For Email & Text Message Weather Alert Notification Services



Advertise Here

Observation History for CAIRO


Time Wind
(mph)
Vis
(mi)
Weather Precip (in) Temperature (F) Relative
Humidity
Wind
Chill
(F)
Heat
Index
(F)
Pressure
Air Dwpt altimeter
(in)
sea level
(mb)
Rmks
10:55 PM CDT 0.0 10.00 Clear -- 74.7 72.3 92% NA 76.1 30.02 1016.6
10:35 PM CDT 0.0 10.00 Partly Cloudy -- 75.2 72.5 91% NA 76.6 30.03 1016.9
09:55 PM CDT SE 5.8 10.00 Partly Cloudy -- 75.4 72.5 91% NA 76.8 30.02 1016.6
09:35 PM CDT SE 8.1 10.00 Mostly Cloudy -- 75.6 72.9 91% NA 77.2 30.02 1016.6
09:15 PM CDT 8.1 10.00 Partly Cloudy -- 76.1 73.0 90% NA 77.7 30.03 1016.9
08:55 PM CDT 11.4 10.00 Partly Cloudy -- 76.1 73.4 91% NA 77.7 30.03 1016.9
07:35 PM CDT S 4.7 10.00 Clear -- 76.5 73.4 90% NA 78.1 30.01 1016.3
06:55 PM CDT SE 4.7 10.00 Clear -- 76.1 73.4 91% NA 77.7 29.99 1015.6
05:55 PM CDT 3.4 10.00 Clear -- 76.3 73.0 90% NA 77.9 29.99 1015.6
05:35 PM CDT SE 5.8 10.00 Partly Cloudy -- 75.9 72.3 89% NA 77.4 30.00 1015.9
04:15 PM CDT 0.0 10.00 Mostly Cloudy -- 73.0 70.7 92% NA 74.3 30.03 1016.9
03:55 PM CDT 3.4 4.00 Cloudy 00.09 72.7 70.9 94% NA 74.1 30.04 1017.3
03:15 PM CDT 4.7 3.00 Cloudy 00.03 NULL 70.7 % NA NA 30.05 1017.6
02:55 PM CDT SW 16.1 0.75 Cloudy 00.11 NULL 71.1 % NA NA 30.06 1018.0
02:35 PM CDT S 9.2 10.00 Mostly Cloudy -- 83.7 73.8 72% NA 90.5 30.04 1017.3
02:15 PM CDT 10.00 Mostly Cloudy -- NULL % NA NA M
01:35 PM CDT S 6.9 10.00 Cloudy -- 86.0 74.7 69% NA 94.6 30.02 1016.6
01:15 PM CDT 10.3 10.00 Mostly Cloudy -- 85.5 74.1 69% NA 93.4 30.02 1016.6
11:35 AM CDT 8.1 10.00 Mostly Cloudy -- 84.6 75.0 73% NA 92.8 30.03 1016.9
11:15 AM CDT S 8.1 10.00 Mostly Cloudy -- 84.9 74.1 70% NA 92.7 30.04 1017.3
08:35 AM CDT S 8.1 10.00 Clear -- 81.5 73.6 77% NA 86.9 30.03 1016.9
07:55 AM CDT S 11.4 10.00 Clear -- 80.6 73.2 78% NA 85.3 30.01 1016.3
07:15 AM CDT S 6.9 10.00 Clear -- 79.2 73.2 82% NA 82.8 30.00 1015.9
06:35 AM CDT S 8.1 10.00 Clear -- 79.0 73.4 83% NA 82.4 29.99 1015.6

Regional Weather Observation


CAPE GIRARDEAU (KCGI)

Partly Cloudy
73.9 F

CARBONDALE/MURPH (KMDH)

Clear
73.9 F

MARION REGIONAL (KMWA)

Clear
73.4 F

PERRYVILLE (KPCD)

Partly Cloudy
74.5 F

PADUCAH (KPAH)

Mostly Clear
73.9 F

FARMINGTON (KFAM)

Cloudy
73.0 F

Advertise Here


Advertise Here